User: anonymous   Login
Location: Unspecified
(0.0000°N, 0.0000°E)
Time: 08:35:32
(UTC+00:00)
Language:

Kosmos-1655 - Orbit

View from above orbital plane
View from above orbital plane
View from above satellite
View from above satellite

Ground track
Ground track

The orbit is defined by the following mean orbital elements,

1 15751U          26103.78642884 +.00000000 +00000-0 +50915-4 0 00005
2 15751  82.9450 114.0686 0025168 276.0523 263.6265 13.71931888    01
Epoch (UTC): 13 April 2026 18:52:27
Eccentricity: 0.0025168
inclination: 82.9450°
perigee height: 974 km
apogee height: 1011 km
right ascension of ascending node: 114.0686°
argument of perigee: 276.0523°
revolutions per day: 13.71931888
mean anomaly at epoch: 263.6265°

The dashed part of the orbit path shows where the satellite is in the earth's shadow,  

DLR